Regional Weather Roundup
Issued by NWS

Home | Current Version | Previous Version | Graphics & Text | Print | Product List | Glossary On
Versions: 1 2 3 4 5 6 7 8 9 10 11 12 13 14 15 16 17 18 19 20 21 22 23 24 25 26 27 28 29 30 31 32 33 34 35 36 37 38 39 40 41 42 43 44 45 46 47 48 49 50
000
ASUS43 KDTX 230701
RWRMI
MICHIGAN HOURLY REGIONAL WEATHER ROUNDUP
NATIONAL WEATHER SERVICE DETROIT/PONTIAC MI
300 AM EDT SAT JUL 23 2016

NOTE: "FAIR" INDICATES FEW OR NO CLOUDS BELOW 12,000 FEET WITH NO
SIGNIFICANT WEATHER AND/OR OBSTRUCTION TO VISIBILITY.

MIZ047>049-052>055-059>063-066>070-074>076-081>083-230800-
SOUTHEAST LOWER MICHIGAN

CITY           SKY/WX    TMP DP  RH WIND       PRES   REMARKS
ADRIAN         CLEAR     70  70 100 NW3       30.00S
ALMA           FOG       67  67 100 W5        29.98S VSB 3/4
ANN ARBOR      CLEAR     68  68 100 W6        29.99S
BAD AXE        CLEAR     61  60  95 CALM      29.97R
CARO           FOG       65  64  98 CALM      29.97S VSB 1
DETROIT CITY   CLEAR     78  71  79 W5        29.97S
DETROIT        CLEAR     76  69  79 W6        29.98S
FLINT          CLEAR     74  68  81 W3        29.98S
GROSSE ILE     CLEAR     76  70  82 NW6       29.96S
HOWELL         CLEAR     70  68  94 SW3       30.00S

CITY           SKY/WX    TMP DP  RH WIND       PRES   REMARKS
JACKSON        CLEAR     70  70 100 CALM      30.01S
LAMBERTVILLE   CLEAR     75  70  86 CALM      29.99S
LANSING        CLEAR     71  67  87 W6        30.00S
LAPEER         FAIR      67  66  95 CALM      29.98S
MASON          CLEAR     68  67  94 E5        30.01R
MONROE         CLEAR     72  71  94 CALM      29.97S
MT. CLEMENS    CLEAR     76  69  79 W5        29.95R
PONTIAC        CLEAR     74  69  85 NW6       29.99R
PORT HOPE        N/A     66  62  87 SW6       29.93S
PORT HURON     CLEAR     70  68  94 CALM      29.96R
TRI CITIES     CLEAR     73  68  84 CALM      29.97S
MIDLAND        FAIR      64  64  98 CALM      29.96F
TROY           CLEAR     78  70  76 W3        30.00R
SAGINAW HB     CLEAR     72  64  78 CALM      29.96F
$$
MIZ043>046-050>051-056>058-064>065-071>073-077>080-230800-
SOUTHWEST LOWER MICHIGAN

CITY           SKY/WX    TMP DP  RH WIND       PRES   REMARKS
BATTLE CREEK   CLEAR     66  66 100 SW5       30.02R
BENTON HARBOR  CLEAR     69  67  93 CALM      30.00S FOG
BIG RAPIDS     CLEAR     64  64 100 CALM      29.99S
COLDWATER      CLEAR     69  69 100 CALM      30.01S FOG
FREMONT        FOG       67  67 100 CALM      29.98F VSB 3/4
HOLLAND        CLEAR     64  63  96 CALM      30.01R FOG
GRAND RAPIDS   CLEAR     68  65  90 S3        30.00S
IONIA          FAIR      68  66  92 SW7       29.99S
KALAMAZOO      CLEAR     70  66  87 CALM      30.01S
LUDINGTON      CLEAR     72  69  89 SW6       29.97S
MARSHALL       FOG       69  68  98 CALM      30.01R VSB 3/4
MOUNT PLEASANT CLEAR     67  65  96 CALM      29.97F
MUSKEGON         N/A     68  66  93 CALM      29.98F
SOUTH HAVEN    CLEAR     64  64  99 CALM      30.00S
$$
MIZ016>042-230800-
NORTHERN LOWER MICHIGAN

CITY           SKY/WX    TMP DP  RH WIND       PRES   REMARKS
ALPENA         CLEAR     64  59  83 CALM      29.95R
BEAVER ISLAND  CLEAR     61  61  99 CALM      29.95S FOG
BELLAIRE       CLEAR     62  60  95 CALM      29.97R FOG
CADILLAC       CLEAR     64  60  87 CALM      30.00R
CHARLEVOIX     CLEAR     66  65  94 CALM      29.98S
FRANKFORT      CLEAR     69  67  92 CALM      29.96F
GAYLORD        CLEAR     67  60  78 W3        29.99S
GRAYLING       CLEAR     61  58  91 CALM      29.99S
HARBOR SPRINGS CLEAR     65  63  94 CALM      29.96R
HOUGHTON LAKE  CLEAR     61  59  93 CALM      30.00R
MANISTEE       CLEAR     64  64 100 CALM      29.98R FOG
OSCODA         PTCLDY    67  57  69 CALM      29.94S
PELLSTON       CLEAR     61  59  93 CALM      29.95S
ROGERS CITY    CLEAR     68  60  75 SW6       29.94S
TRAVERSE CITY  CLEAR     71  66  84 VRB3      29.94F
$$
MIZ007>008-015-230800-
EASTERN UPPER MICHIGAN

CITY           SKY/WX    TMP DP  RH WIND       PRES   REMARKS
KINROSS        CLEAR     62  61  96 W6        29.94R
MACKINAC ISLAN CLEAR     69  63  83 SW8       29.94R
NEWBERRY       CLEAR     63  61  93 W7        29.95R
S. S. MARIE    CLEAR     64  59  83 W6        29.92R
MUNISING         N/A     64  60  87 S6        29.94R
$$
MIZ004>006-011>014-085-230800-
CENTRAL UPPER MICHIGAN

CITY           SKY/WX    TMP DP  RH WIND       PRES   REMARKS
MANISTIQUE     CLEAR     59  58  97 CALM      29.94S
ESCANABA       CLEAR     63  57  82 W6        29.94R
MENOMINEE      CLEAR     68  66  93 CALM      29.96
SAWYER-GWINN   CLEAR     63  57  81 CALM      29.98S
$$
MIZ001>003-009>011-084-230800-
WESTERN UPPER MICHIGAN

CITY           SKY/WX    TMP DP  RH WIND       PRES   REMARKS
IRON MOUNTAIN  PTCLDY    62  57  83 CALM      29.98S
HOUGHTON       CLEAR     65  54  67 NW9       29.96S
COPPER HARBOR    N/A     74  55  51 W5        29.94R
IRONWOOD       MOCLDY    61  61 100 CALM      30.00S VSB 1
$$

ABBREVIATIONS USED IN REMARKS
   TC - TEMPERATURE IN CELSIUS
  WCI - WIND CHILL INDEX
   HX - HEAT INDEX
  VSB - VISIBILITY




USA.gov is the U.S. government's official web portal to all federal, state and local government web resources and services.